Simultaneous Nadir Overpasses (SNOs) Predictions

Prediction of SNOs between AQUA and GOES-15 Satellite Orbit:

Table of predicted SNOs for the next 14.0 days since TLE Epoch: 5/7/2023
Index Date Time (AQUA) AQUA Lat,Lon GOES-15 Lat,Lon Distance(km) Time Diff (sec)
1 05/07/2023 11:15:37 -0.39,-141.98 0.10,-144.31 265.78 80
2 05/07/2023 23:36:35 -0.62,-147.06 -0.08,-144.53 288.16 80
3 05/09/2023 23:22:41 0.28,-143.70 -0.09,-145.45 199.09 80
4 05/10/2023 11:43:30 0.74,-148.75 0.07,-145.71 346.16 80
5 05/12/2023 11:29:35 -0.15,-145.38 0.08,-146.62 140.74 80
6 05/12/2023 23:50:33 -0.82,-150.47 -0.06,-146.83 413.61 80
7 05/14/2023 23:36:37 0.07,-147.10 -0.07,-147.74 73.41 80
8 05/15/2023 11:57:26 0.94,-152.15 0.05,-148.00 471.73 80
9 05/17/2023 11:43:29 0.05,-148.77 0.06,-148.91 15.10 80
10 05/19/2023 23:50:28 -0.12,-150.49 -0.04,-150.01 53.64 80
